• In Germany
  • List of Countries
  • For 7 days
  • Water Temperature
  • Satellite Maps
  • Weather Map
  • Weather Widgets
  • user-avatar
    Login

    Hourly Weather Oran

    Today, 29 June, Thursday

    Time Temperature Precipitation Wind Pressure Humidity
    00:00 +24°C° 0 mm 7 mps 749 mmHg 58%
    01:00 +24°C° 0 mm 7 mps 749 mmHg 61%
    02:00 +23°C° 0 mm 7 mps 749 mmHg 63%
    03:00 +23°C° 0 mm 7 mps 749 mmHg 66%
    04:00 +23°C° 0 mm 8 mps 749 mmHg 66%
    05:00 +23°C° 0 mm 8 mps 749 mmHg 66%
    06:00 +23°C° 0 mm 8 mps 749 mmHg 66%
    07:00 +26°C° 0 mm 8 mps 749 mmHg 61%
    08:00 +27°C° 0 mm 8 mps 749 mmHg 56%
    09:00 +28°C° 0 mm 9 mps 749 mmHg 50%
    10:00 +29°C° 0 mm 9 mps 749 mmHg 47%
    11:00 +31°C° 0 mm 9 mps 749 mmHg 45%
    12:00 +32°C° 0 mm 9 mps 749 mmHg 42%
    13:00 +32°C° 0 mm 9 mps 749 mmHg 40%
    14:00 +32°C° 0 mm 9 mps 748 mmHg 39%
    15:00 +32°C° 0 mm 9 mps 748 mmHg 38%
    16:00 +31°C° 0 mm 8 mps 748 mmHg 37%
    17:00 +30°C° 0 mm 7 mps 748 mmHg 36%
    18:00 +29°C° 0 mm 7 mps 748 mmHg 34%
    19:00 +28°C° 0 mm 6 mps 748 mmHg 38%
    20:00 +27°C° 0 mm 5 mps 748 mmHg 41%
    21:00 +26°C° 0 mm 5 mps 749 mmHg 45%
    22:00 +25°C° 0 mm 5 mps 749 mmHg 46%
    23:00 +24°C° 0 mm 6 mps 749 mmHg 47%

    Tomorrow, 30 June, Friday

    Time Temperature Precipitation Wind Pressure Humidity
    00:00 +24°C° 0 mm 6 mps 749 mmHg 49%
    01:00 +24°C° 0 mm 7 mps 749 mmHg 50%
    02:00 +24°C° 0 mm 7 mps 749 mmHg 52%
    03:00 +24°C° 0 mm 7 mps 749 mmHg 54%
    04:00 +24°C° 0 mm 7 mps 749 mmHg 55%
    05:00 +24°C° 0 mm 7 mps 750 mmHg 57%
    06:00 +24°C° 0 mm 6 mps 750 mmHg 59%
    07:00 +26°C° 0 mm 7 mps 750 mmHg 53%
    08:00 +26°C° 0 mm 7 mps 751 mmHg 48%
    09:00 +27°C° 0 mm 7 mps 751 mmHg 43%
    10:00 +28°C° 0 mm 7 mps 751 mmHg 40%
    11:00 +29°C° 0 mm 7 mps 751 mmHg 37%
    12:00 +29°C° 0 mm 7 mps 751 mmHg 33%
    13:00 +29°C° 0 mm 7 mps 751 mmHg 31%
    14:00 +29°C° 0 mm 6 mps 751 mmHg 29%
    15:00 +29°C° 0 mm 6 mps 750 mmHg 28%
    16:00 +29°C° 0 mm 5 mps 751 mmHg 27%
    17:00 +28°C° 0 mm 5 mps 751 mmHg 27%
    18:00 +27°C° 0 mm 4 mps 751 mmHg 27%
    19:00 +26°C° 0 mm 4 mps 751 mmHg 31%
    20:00 +24°C° 0 mm 3 mps 752 mmHg 34%
    21:00 +22°C° 0 mm 3 mps 752 mmHg 38%
    22:00 +21°C° 0 mm 3 mps 752 mmHg 39%
    23:00 +21°C° 0 mm 3 mps 752 mmHg 40%

    Day after tomorrow, 1 July, Saturday

    Time Temperature Precipitation Wind Pressure Humidity
    00:00 +20°C° 0 mm 3 mps 752 mmHg 41%
    01:00 +20°C° 0 mm 2 mps 752 mmHg 42%
    02:00 +20°C° 0 mm 2 mps 752 mmHg 44%
    03:00 +19°C° 0 mm 2 mps 752 mmHg 46%
    04:00 +20°C° 0 mm 2 mps 752 mmHg 42%
    05:00 +21°C° 0 mm 2 mps 752 mmHg 38%
    06:00 +23°C° 0 mm 2 mps 752 mmHg 34%
    07:00 +25°C° 0 mm 2 mps 753 mmHg 31%
    08:00 +26°C° 0 mm 1 mps 753 mmHg 28%
    09:00 +28°C° 0 mm 1 mps 753 mmHg 25%
    10:00 +30°C° 0 mm 3 mps 753 mmHg 23%
    11:00 +32°C° 0 mm 4 mps 753 mmHg 21%
    12:00 +34°C° 0 mm 5 mps 753 mmHg 19%
    13:00 +34°C° 0 mm 6 mps 753 mmHg 20%
    14:00 +34°C° 0 mm 7 mps 753 mmHg 22%
    15:00 +34°C° 0 mm 8 mps 752 mmHg 24%
    16:00 +33°C° 0 mm 8 mps 752 mmHg 29%
    17:00 +32°C° 0 mm 8 mps 753 mmHg 33%
    18:00 +29°C° 0 mm 8 mps 753 mmHg 38%
    19:00 +28°C° 0 mm 8 mps 753 mmHg 42%
    20:00 +27°C° 0 mm 7 mps 754 mmHg 46%
    21:00 +26°C° 0 mm 6 mps 754 mmHg 50%
    22:00 +24°C° 0 mm 6 mps 754 mmHg 52%
    23:00 +24°C° 0 mm 6 mps 754 mmHg 54%

    2 July, Sunday

    Time Temperature Precipitation Wind Pressure Humidity
    00:00 +23°C° 0 mm 5 mps 754 mmHg 56%
    01:00 +23°C° 0 mm 5 mps 754 mmHg 58%
    02:00 +22°C° 0 mm 5 mps 754 mmHg 59%
    03:00 +22°C° 0 mm 5 mps 754 mmHg 60%
    04:00 +22°C° 0 mm 5 mps 754 mmHg 59%
    05:00 +23°C° 0 mm 5 mps 754 mmHg 57%
    06:00 +23°C° 0 mm 5 mps 754 mmHg 56%
    07:00 +26°C° 0 mm 6 mps 755 mmHg 47%
    08:00 +28°C° 0 mm 6 mps 755 mmHg 38%
    09:00 +32°C° 0 mm 7 mps 755 mmHg 29%
    10:00 +33°C° 0 mm 7 mps 754 mmHg 27%
    11:00 +34°C° 0 mm 8 mps 754 mmHg 24%
    12:00 +37°C° 0 mm 9 mps 754 mmHg 22%
    13:00 +37°C° 0 mm 9 mps 753 mmHg 24%
    14:00 +37°C° 0 mm 9 mps 753 mmHg 26%
    15:00 +37°C° 0 mm 10 mps 753 mmHg 28%
    16:00 +34°C° 0 mm 10 mps 753 mmHg 33%
    17:00 +33°C° 0 mm 10 mps 753 mmHg 38%
    18:00 +31°C° 0 mm 10 mps 753 mmHg 43%
    19:00 +29°C° 0 mm 9 mps 753 mmHg 49%
    20:00 +27°C° 0 mm 8 mps 753 mmHg 54%
    21:00 +26°C° 0 mm 7 mps 754 mmHg 60%
    22:00 +26°C° 0 mm 6 mps 754 mmHg 63%
    23:00 +25°C° 0 mm 5 mps 754 mmHg 65%

    3 July, Monday

    Time Temperature Precipitation Wind Pressure Humidity
    00:00 +25°C° 0 mm 5 mps 754 mmHg 68%
    01:00 +23°C° 0 mm 5 mps 753 mmHg 69%
    02:00 +23°C° 0 mm 4 mps 753 mmHg 71%
    03:00 +23°C° 0 mm 4 mps 753 mmHg 73%
    04:00 +23°C° 0 mm 4 mps 753 mmHg 70%
    05:00 +25°C° 0 mm 4 mps 753 mmHg 67%
    06:00 +26°C° 0 mm 4 mps 753 mmHg 64%
    07:00 +28°C° 0 mm 4 mps 753 mmHg 56%
    08:00 +30°C° 0 mm 4 mps 753 mmHg 47%
    09:00 +33°C° 0 mm 4 mps 753 mmHg 38%
    10:00 +35°C° 0 mm 5 mps 752 mmHg 35%
    11:00 +38°C° 0 mm 6 mps 752 mmHg 31%
    12:00 +39°C° 0 mm 6 mps 752 mmHg 28%
    13:00 +39°C° 0 mm 7 mps 751 mmHg 29%
    14:00 +39°C° 0 mm 7 mps 751 mmHg 29%
    15:00 +39°C° 0 mm 8 mps 750 mmHg 30%
    16:00 +38°C° 0 mm 8 mps 750 mmHg 33%
    17:00 +36°C° 0 mm 7 mps 750 mmHg 35%
    18:00 +35°C° 0 mm 7 mps 750 mmHg 38%
    19:00 +33°C° 0 mm 6 mps 751 mmHg 45%
    20:00 +30°C° 0 mm 6 mps 751 mmHg 52%
    21:00 +29°C° 0 mm 5 mps 752 mmHg 59%
    22:00 +28°C° 0 mm 5 mps 752 mmHg 62%
    23:00 +28°C° 0 mm 4 mps 751 mmHg 66%

    4 July, Tuesday

    Time Temperature Precipitation Wind Pressure Humidity
    00:00 +27°C° 0 mm 4 mps 751 mmHg 69%
    01:00 +27°C° 0 mm 4 mps 751 mmHg 72%
    02:00 +26°C° 0 mm 4 mps 751 mmHg 75%
    03:00 +26°C° 0 mm 4 mps 751 mmHg 78%
    04:00 +26°C° 0 mm 3 mps 751 mmHg 77%
    05:00 +26°C° 0 mm 3 mps 751 mmHg 77%
    06:00 +26°C° 0 mm 3 mps 751 mmHg 76%
    07:00 +28°C° 0 mm 3 mps 751 mmHg 67%
    08:00 +30°C° 0 mm 3 mps 751 mmHg 59%
    09:00 +33°C° 0 mm 3 mps 751 mmHg 50%
    10:00 +34°C° 0 mm 4 mps 751 mmHg 47%
    11:00 +36°C° 0 mm 4 mps 751 mmHg 43%
    12:00 +37°C° 0 mm 5 mps 751 mmHg 39%
    13:00 +37°C° 0 mm 5 mps 750 mmHg 39%
    14:00 +37°C° 0 mm 5 mps 750 mmHg 39%
    15:00 +37°C° 0 mm 5 mps 750 mmHg 39%
    16:00 +36°C° 0 mm 5 mps 750 mmHg 42%
    17:00 +35°C° 0 mm 5 mps 749 mmHg 45%
    18:00 +34°C° 0 mm 4 mps 749 mmHg 47%
    19:00 +32°C° 0 mm 4 mps 750 mmHg 54%
    20:00 +30°C° 0 mm 3 mps 750 mmHg 60%
    21:00 +28°C° 0 mm 2 mps 750 mmHg 67%
    22:00 +28°C° 0 mm 2 mps 750 mmHg 69%
    23:00 +27°C° 0 mm 2 mps 750 mmHg 71%
    Show more